"startDT [UTC]","vpos","CH4 [ppm]","stdev(CH4) [ppm]","CO2 [ppm]","stdev(CO2) [ppm]","H2O_reported [%]","stdev(H2O_reported)","CavityPressure [torr]","CavityTemp [C]","OutletValve","CH4_dry [ppm]","CO2_dry [ppm]","DasTemp [C]","EtalonTemp [C]","WarmBoxTemp [C]","MPVPosition","T_ECpre [C]","T_EC1 [C]","T_EC2 [C]","p_inlet [hPa]","p_in [hPa]","p_out [hPa]","T_inlet [C]","RH_inlet [%]","dwpt_inlet [C]","T_vent [C]","RH_vent [%]","dwpt_vent [C]","flow_vent [l min-1]","flow_inlet [l min-1]","dwpt_sample [C]","T_room [C]"
2015-04-19 00:00:00,3.0,1.88080,0.01480,399.558,2.352,0.0537,0.0744,139.912,45.000,31123.81587,1.88443,400.052,31.953,45.068,45.000,0.00,0.09,-272.73,-272.78,13,488,-1,20.9,6.4,-17.4,20.5,6.5,-17.4,5.73,1.49,-14.4,25.2
2015-04-19 00:01:00,3.0,1.87611,0.00029,397.197,0.084,0.0093,0.0016,140.000,45.000,31035.81697,1.87628,397.249,31.953,45.068,45.000,0.00,0.09,-272.73,-272.78,12,488,-1,20.9,6.4,-17.3,20.5,6.5,-17.4,5.73,1.65,-14.4,25.2
2015-04-19 00:02:00,3.0,1.87591,0.00031,397.229,0.087,0.0102,0.0021,139.998,45.000,31013.85290,1.87612,397.270,31.939,45.068,45.000,0.00,0.09,-272.72,-272.78,11,488,-1,20.9,6.4,-17.3,20.5,6.4,-17.5,5.73,1.73,-14.5,25.2
2015-04-19 00:03:00,3.0,1.87608,0.00038,397.460,0.036,0.0086,0.0017,139.999,45.000,30996.45231,1.87626,397.499,31.931,45.068,45.000,0.00,0.09,-272.73,-272.78,11,488,-1,20.9,6.4,-17.3,20.5,6.4,-17.5,5.73,1.72,-14.5,25.2
2015-04-19 00:04:00,3.0,1.87571,0.00035,397.541,0.029,0.0075,0.0011,140.000,45.000,30984.60835,1.87583,397.574,31.929,45.069,45.000,0.00,0.09,-272.73,-272.78,12,488,-1,20.9,6.4,-17.3,20.5,6.4,-17.5,5.73,1.65,-14.4,25.2
2015-04-19 00:05:00,3.0,1.87576,0.00027,397.549,0.027,0.0057,0.0017,140.001,45.000,30972.84252,1.87587,397.576,31.935,45.069,45.000,0.00,0.09,-272.72,-272.78,12,488,-1,20.9,6.4,-17.3,20.5,6.4,-17.5,5.73,1.59,-14.4,25.2
2015-04-19 00:06:00,3.0,1.87580,0.00032,397.564,0.036,0.0047,0.0015,140.000,45.000,30963.85155,1.87587,397.585,31.938,45.068,45.000,0.00,0.09,-272.72,-272.78,12,488,-1,20.9,6.4,-17.3,20.5,6.4,-17.6,5.73,1.57,-14.4,25.2
2015-04-19 00:07:00,3.0,1.87600,0.00032,397.571,0.038,0.0034,0.0017,139.996,45.000,30955.98068,1.87608,397.589,31.936,45.068,45.000,0.00,0.09,-272.73,-272.78,11,488,-1,20.9,6.4,-17.2,20.6,6.4,-17.6,5.73,1.63,-14.4,25.3
2015-04-19 00:08:00,3.0,1.87619,0.00044,397.597,0.039,0.0034,0.0016,139.997,45.000,30950.84074,1.87624,397.611,31.938,45.068,45.000,0.00,0.09,-272.73,-272.78,12,489,-1,20.9,6.4,-17.2,20.6,6.4,-17.6,5.73,1.70,-14.4,25.3
2015-04-19 00:09:00,3.0,1.87617,0.00025,397.614,0.023,0.0026,0.0018,139.998,45.000,30947.89150,1.87621,397.627,31.938,45.068,45.000,0.00,0.09,-272.72,-272.77,12,489,-1,20.9,6.4,-17.2,20.6,6.4,-17.5,5.73,1.73,-14.4,25.2
2015-04-19 00:10:00,3.0,1.87615,0.00029,397.572,0.023,0.0009,0.0026,139.999,45.000,30945.49738,1.87618,397.577,31.939,45.068,45.000,0.00,0.09,-272.73,-272.79,12,490,-1,21.0,6.5,-17.1,20.6,6.4,-17.5,5.73,1.70,-14.4,25.2
2015-04-19 00:11:00,3.0,1.87589,0.00030,397.590,0.031,0.0022,0.0028,140.002,45.000,30945.72865,1.87595,397.599,31.936,45.069,45.000,0.00,0.09,-272.73,-272.79,11,490,-1,21.0,6.5,-17.1,20.6,6.4,-17.4,5.73,1.63,-14.4,25.3
2015-04-19 00:12:00,3.0,1.87614,0.00040,397.608,0.030,0.0023,0.0023,139.998,45.000,30941.63792,1.87619,397.619,31.938,45.068,45.000,0.00,0.09,-272.71,-272.78,11,490,-1,21.0,6.4,-17.2,20.7,6.4,-17.4,5.73,1.58,-14.4,25.3
2015-04-19 00:13:00,3.0,1.87622,0.00028,397.605,0.029,0.0022,0.0015,140.000,45.000,30938.44303,1.87625,397.616,31.938,45.068,45.000,0.00,0.09,-272.72,-272.78,12,490,-1,21.0,6.4,-17.2,20.7,6.4,-17.4,5.73,1.58,-14.3,25.3
2015-04-19 00:14:00,3.0,1.87597,0.00032,397.577,0.025,0.0008,0.0017,139.997,45.000,30939.39308,1.87598,397.583,31.938,45.068,45.000,0.00,0.09,-272.73,-272.78,12,491,-1,21.1,6.4,-17.2,20.7,6.5,-17.3,5.73,1.64,-14.3,25.4
2015-04-19 00:15:00,3.0,1.87604,0.00040,397.581,0.047,0.0015,0.0016,139.999,45.000,30940.03791,1.87608,397.586,31.947,45.069,45.000,0.00,0.09,-272.74,-272.79,12,491,-1,21.1,6.4,-17.2,20.7,6.5,-17.3,5.73,1.70,-14.3,25.4
2015-04-19 00:16:00,3.0,1.87612,0.00024,397.584,0.025,0.0007,0.0018,139.999,45.000,30939.80128,1.87610,397.587,31.960,45.069,45.000,0.00,0.09,-272.73,-272.78,11,491,-1,21.1,6.4,-17.1,20.7,6.5,-17.3,5.73,1.72,-14.3,25.4
2015-04-19 00:17:00,3.0,1.87602,0.00045,397.586,0.026,0.0007,0.0017,139.995,45.000,30939.12593,1.87606,397.588,31.985,45.068,45.000,0.00,0.09,-272.74,-272.78,11,491,-1,21.1,6.4,-17.1,20.7,6.5,-17.2,5.73,1.70,-14.3,25.4
2015-04-19 00:18:00,3.0,1.87623,0.00026,397.617,0.023,0.0011,0.0011,139.999,45.000,30940.03276,1.87624,397.623,32.000,45.068,45.000,0.00,0.09,-272.73,-272.78,12,491,-1,21.1,6.4,-17.0,20.7,6.5,-17.2,5.73,1.64,-14.4,25.4
2015-04-19 00:19:00,3.0,1.87595,0.00032,397.603,0.022,0.0011,0.0018,139.999,45.000,30942.71031,1.87596,397.609,32.001,45.068,45.000,0.00,0.09,-272.72,-272.78,12,492,-1,21.1,6.5,-17.0,20.8,6.5,-17.1,5.73,1.59,-14.3,25.4
2015-04-19 00:20:00,0.0,1.91475,0.01384,403.548,2.481,0.1640,0.0801,140.158,45.000,32206.08763,1.91530,404.121,32.007,45.068,45.000,0.00,0.09,-272.72,-272.78,7,685,-1,21.1,6.5,-16.9,20.8,6.5,-17.2,5.73,1.63,-14.3,25.4
2015-04-19 00:21:00,0.0,1.92023,0.00029,404.469,0.042,0.2078,0.0015,140.000,45.000,32265.72109,1.92422,405.489,32.048,45.068,45.000,0.00,0.09,-272.73,-272.78,6,685,-1,21.2,6.4,-17.1,20.8,6.5,-17.1,5.73,1.98,-14.3,25.4
2015-04-19 00:22:00,0.0,1.92015,0.00033,404.483,0.038,0.2045,0.0017,140.004,45.000,32289.76568,1.92400,405.481,32.054,45.068,45.000,0.00,0.09,-272.72,-272.77,7,685,-1,21.2,6.3,-17.3,20.8,6.5,-17.2,5.73,1.68,-14.3,25.5
2015-04-19 00:23:00,0.0,1.92039,0.00034,404.480,0.021,0.2067,0.0021,140.001,45.000,32305.77302,1.92434,405.491,32.063,45.068,45.000,0.00,0.09,-272.72,-272.78,5,685,-2,21.2,6.3,-17.3,20.8,6.5,-17.2,5.73,1.83,-14.3,25.5
2015-04-19 00:24:00,0.0,1.92034,0.00032,404.481,0.033,0.2070,0.0019,140.001,45.000,32321.98101,1.92428,405.492,32.063,45.068,45.000,0.00,0.09,-272.73,-272.78,7,685,-2,21.2,6.3,-17.2,20.9,6.5,-17.1,5.73,1.92,-14.3,25.5
2015-04-19 00:25:00,0.0,1.92038,0.00022,404.460,0.035,0.2081,0.0017,140.002,45.000,32335.79561,1.92431,405.478,32.063,45.068,45.000,0.00,0.09,-272.72,-272.79,5,685,-1,21.2,6.4,-17.1,20.9,6.5,-17.1,5.73,1.65,-14.3,25.5
2015-04-19 00:26:00,0.0,1.91998,0.00031,404.465,0.020,0.2074,0.0019,139.999,45.000,32347.70721,1.92395,405.480,32.064,45.068,45.000,0.00,0.09,-272.72,-272.78,7,685,-1,21.2,6.3,-17.2,20.9,6.5,-17.1,5.73,1.97,-14.3,25.5
2015-04-19 00:27:00,0.0,1.92011,0.00037,404.457,0.040,0.2081,0.0018,139.999,45.000,32355.54090,1.92409,405.474,32.064,45.068,45.000,0.00,0.09,-272.72,-272.78,6,685,-2,21.3,6.3,-17.2,20.9,6.5,-17.1,5.73,1.74,-14.3,25.5
2015-04-19 00:28:00,0.0,1.92026,0.00032,404.471,0.032,0.2082,0.0016,139.994,45.000,32360.04616,1.92415,405.490,32.063,45.068,45.000,0.00,0.09,-272.72,-272.78,6,685,-2,21.3,6.3,-17.2,20.9,6.5,-17.1,5.73,1.79,-14.3,25.5
2015-04-19 00:29:00,0.0,1.92033,0.00032,404.464,0.021,0.2092,0.0015,139.999,45.000,32368.36213,1.92429,405.486,32.064,45.068,45.000,0.00,0.09,-272.73,-272.77,6,685,-1,21.3,6.3,-17.1,20.9,6.5,-17.1,5.73,1.93,-14.3,25.5
2015-04-19 00:30:00,0.0,1.92022,0.00024,404.454,0.027,0.2099,0.0016,140.004,45.000,32374.93466,1.92423,405.479,32.054,45.068,45.000,0.00,0.09,-272.72,-272.78,6,685,-2,21.3,6.3,-17.1,20.9,6.5,-17.1,5.73,1.64,-14.3,25.6
2015-04-19 00:31:00,0.0,1.92021,0.00037,404.447,0.032,0.2101,0.0012,139.996,45.001,32377.14582,1.92421,405.476,32.042,45.068,45.000,0.00,0.09,-272.73,-272.78,6,685,-2,21.3,6.3,-17.1,20.9,6.5,-17.1,5.73,1.98,-14.3,25.6
2015-04-19 00:32:00,0.0,1.92037,0.00026,404.475,0.020,0.2082,0.0018,140.001,45.001,32380.89030,1.92434,405.490,32.033,45.068,45.000,0.00,0.09,-272.72,-272.78,6,685,-2,21.3,6.3,-17.2,21.0,6.5,-17.1,5.73,1.69,-14.2,25.5
2015-04-19 00:33:00,0.0,1.92083,0.00042,404.475,0.034,0.2090,0.0016,139.999,45.000,32380.84864,1.92475,405.498,32.024,45.068,45.000,0.00,0.09,-272.72,-272.78,7,685,-2,21.3,6.3,-17.2,21.0,6.5,-17.1,5.73,1.83,-14.2,25.5
2015-04-19 00:34:00,0.0,1.92047,0.00031,404.460,0.022,0.2087,0.0015,139.999,45.000,32384.91862,1.92445,405.480,32.014,45.069,45.000,0.00,0.09,-272.73,-272.78,5,685,-2,21.3,6.3,-17.2,21.0,6.5,-17.1,5.73,1.90,-14.2,25.5
2015-04-19 00:35:00,0.0,1.92035,0.00050,404.473,0.034,0.2088,0.0016,140.003,45.000,32388.98074,1.92434,405.494,32.055,45.069,45.000,0.00,0.09,-272.72,-272.77,7,685,-2,21.3,6.3,-17.2,21.0,6.5,-17.1,5.73,1.65,-14.2,25.6
2015-04-19 00:36:00,0.0,1.92021,0.00047,404.442,0.036,0.2099,0.0011,140.004,45.000,32392.21322,1.92421,405.467,32.063,45.068,45.000,0.00,0.09,-272.72,-272.78,5,685,-2,21.3,6.3,-17.1,21.0,6.5,-17.1,5.73,1.98,-14.2,25.5
2015-04-19 00:37:00,0.0,1.91985,0.00031,404.406,0.035,0.2114,0.0018,140.000,45.000,32394.45605,1.92388,405.440,32.059,45.068,45.000,0.00,0.09,-272.73,-272.78,7,685,-2,21.4,6.3,-17.1,21.0,6.5,-17.1,5.73,1.70,-14.2,25.6
2015-04-19 00:38:00,0.0,1.92007,0.00042,404.449,0.024,0.2106,0.0010,140.000,45.000,32394.59774,1.92401,405.477,32.035,45.068,45.000,0.00,0.09,-272.72,-272.79,5,685,-2,21.4,6.3,-17.1,21.0,6.4,-17.1,5.73,1.83,-14.2,25.6
2015-04-19 00:39:00,0.0,1.92044,0.00037,404.470,0.023,0.2104,0.0014,140.001,45.000,32393.02375,1.92444,405.501,32.044,45.068,45.000,0.00,0.09,-272.72,-272.78,7,685,-2,21.4,6.3,-17.2,21.0,6.4,-17.1,5.73,1.90,-14.2,25.6
2015-04-19 00:40:00,0.0,1.92029,0.00035,404.452,0.035,0.2087,0.0020,140.002,45.000,32397.62367,1.92429,405.474,32.055,45.068,45.000,0.00,0.09,-272.72,-272.78,5,685,-2,21.4,6.2,-17.2,21.0,6.4,-17.1,5.73,1.65,-14.2,25.6
2015-04-19 00:41:00,0.0,1.92040,0.00030,404.450,0.035,0.2090,0.0017,139.997,45.000,32396.99278,1.92434,405.470,32.062,45.068,45.000,0.00,0.09,-272.73,-272.78,6,685,-2,21.4,6.2,-17.2,21.0,6.4,-17.1,5.73,1.98,-14.2,25.6
2015-04-19 00:42:00,0.0,1.92028,0.00043,404.439,0.023,0.2091,0.0016,139.998,45.000,32396.81643,1.92425,405.462,32.062,45.068,45.000,0.00,0.09,-272.72,-272.77,6,685,-2,21.4,6.3,-17.2,21.0,6.4,-17.1,5.73,1.69,-14.2,25.6
2015-04-19 00:43:00,0.0,1.92046,0.00023,404.432,0.028,0.2109,0.0018,140.002,45.000,32397.91246,1.92447,405.462,32.061,45.068,45.000,0.00,0.09,-272.72,-272.78,6,685,-2,21.4,6.3,-17.2,21.0,6.4,-17.1,5.73,1.82,-14.1,25.5
2015-04-19 00:44:00,0.0,1.92057,0.00037,404.458,0.025,0.2102,0.0018,139.998,45.000,32395.44803,1.92456,405.484,32.060,45.068,45.000,0.00,0.09,-272.73,-272.78,6,685,-2,21.4,6.3,-17.1,21.0,6.4,-17.1,5.73,1.91,-14.1,25.5
2015-04-19 00:45:00,0.0,1.92058,0.00031,404.460,0.029,0.2101,0.0014,139.998,45.000,32397.69797,1.92455,405.488,32.061,45.068,45.000,0.00,0.09,-272.72,-272.78,5,685,-2,21.4,6.3,-17.2,21.0,6.4,-17.1,5.73,1.64,-14.1,25.6
2015-04-19 00:46:00,0.0,1.92057,0.00034,404.469,0.033,0.2108,0.0018,139.999,45.000,32398.00013,1.92458,405.501,32.063,45.068,45.000,0.00,0.09,-272.72,-272.78,7,685,-2,21.4,6.3,-17.2,21.0,6.4,-17.1,5.73,1.97,-14.1,25.6
2015-04-19 00:47:00,0.0,1.92036,0.00024,404.435,0.035,0.2104,0.0016,140.004,45.000,32399.20064,1.92439,405.463,32.063,45.068,45.000,0.00,0.09,-272.73,-272.78,5,685,-2,21.4,6.2,-17.2,21.0,6.4,-17.1,5.73,1.72,-14.1,25.6
2015-04-19 00:48:00,0.0,1.92023,0.00022,404.441,0.035,0.2106,0.0016,139.997,45.000,32398.46143,1.92420,405.471,32.064,45.068,45.000,0.00,0.09,-272.72,-272.78,7,685,-2,21.4,6.3,-17.2,21.1,6.4,-17.1,5.73,1.79,-14.1,25.6
2015-04-19 00:49:00,0.0,1.92046,0.00031,404.433,0.027,0.2112,0.0017,140.003,45.000,32400.31488,1.92446,405.465,32.066,45.068,45.000,0.00,0.09,-272.72,-272.77,5,685,-2,21.4,6.2,-17.2,21.1,6.4,-17.1,5.73,1.93,-14.1,25.6
2015-04-19 00:50:00,0.0,1.92047,0.00040,404.449,0.031,0.2093,0.0015,140.002,45.000,32400.60542,1.92444,405.473,32.072,45.068,45.000,0.00,0.09,-272.72,-272.78,7,685,-2,21.4,6.2,-17.3,21.1,6.4,-17.1,5.73,1.64,-14.1,25.6
2015-04-19 00:51:00,0.0,1.92035,0.00040,404.492,0.040,0.2073,0.0033,140.002,45.000,32402.56320,1.92427,405.505,32.086,45.068,45.000,0.00,0.09,-272.72,-272.78,5,685,-2,21.5,6.2,-17.3,21.1,6.4,-17.1,5.73,1.97,-14.1,25.6
2015-04-19 00:52:00,0.0,1.92055,0.00029,404.487,0.037,0.2094,0.0021,139.999,45.000,32397.36570,1.92454,405.508,32.083,45.068,45.000,0.00,0.09,-272.72,-272.77,6,685,-2,21.5,6.2,-17.2,21.1,6.4,-17.1,5.73,1.73,-14.1,25.6
2015-04-19 00:53:00,0.0,1.92049,0.00026,404.452,0.037,0.2108,0.0016,139.999,45.000,32398.11233,1.92451,405.485,32.103,45.068,45.000,0.00,0.09,-272.72,-272.78,6,685,-2,21.5,6.3,-17.1,21.1,6.4,-17.1,5.73,1.78,-14.1,25.7
2015-04-19 00:54:00,0.0,1.92049,0.00035,404.453,0.025,0.2129,0.0013,140.005,45.001,32401.52691,1.92452,405.494,32.120,45.068,45.000,0.00,0.09,-272.72,-272.78,6,685,-2,21.5,6.3,-17.0,21.1,6.4,-17.1,5.73,1.93,-14.1,25.7
2015-04-19 00:55:00,0.0,1.92068,0.00029,404.501,0.035,0.2132,0.0017,140.000,45.001,32398.57045,1.92474,405.540,32.117,45.068,45.000,0.00,0.09,-272.72,-272.78,6,685,-2,21.5,6.3,-17.0,21.1,6.4,-17.1,5.73,1.63,-14.1,25.7
2015-04-19 00:56:00,0.0,1.92084,0.00041,404.484,0.034,0.2130,0.0012,139.998,45.001,32400.53406,1.92488,405.529,32.117,45.068,45.000,0.00,0.09,-272.72,-272.78,5,685,-2,21.5,6.3,-16.9,21.1,6.4,-17.1,5.73,1.97,-14.1,25.7
2015-04-19 00:57:00,0.0,1.92079,0.00035,404.485,0.033,0.2138,0.0017,140.001,45.000,32401.73421,1.92485,405.528,32.113,45.068,45.000,0.00,0.09,-272.73,-272.77,6,685,-2,21.5,6.3,-16.9,21.1,6.4,-17.1,5.73,1.70,-14.1,25.7
2015-04-19 00:58:00,0.0,1.92097,0.00040,404.503,0.040,0.2145,0.0014,140.001,45.000,32401.39128,1.92501,405.554,32.114,45.068,45.000,0.00,0.09,-272.73,-272.78,5,685,-2,21.5,6.3,-16.9,21.1,6.4,-17.1,5.73,1.83,-14.1,25.7
2015-04-19 00:59:00,0.0,1.92078,0.00039,404.479,0.026,0.2151,0.0019,139.999,45.000,32401.53769,1.92490,405.529,32.105,45.068,45.000,0.00,0.09,-272.72,-272.77,7,685,-2,21.5,6.3,-17.0,21.1,6.4,-17.1,5.73,1.89,-14.1,25.7
2015-04-19 01:00:00,0.0,1.92076,0.00028,404.489,0.042,0.2145,0.0015,139.998,45.000,32400.79170,1.92481,405.537,32.081,45.068,45.000,0.00,0.09,-272.72,-272.78,5,685,-2,21.5,6.3,-16.9,21.2,6.4,-17.1,5.73,1.66,-14.1,25.7
2015-04-19 01:01:00,0.0,1.92072,0.00036,404.482,0.033,0.2143,0.0014,139.995,45.000,32399.82466,1.92479,405.531,32.066,45.068,45.000,0.00,0.09,-272.73,-272.78,7,685,-2,21.6,6.3,-17.0,21.2,6.4,-17.1,5.73,1.99,-14.1,25.8
2015-04-19 01:02:00,0.0,1.92086,0.00031,404.483,0.029,0.2134,0.0023,140.001,45.000,32400.87636,1.92493,405.529,32.063,45.068,45.000,0.00,0.09,-272.72,-272.77,5,685,-2,21.6,6.3,-17.0,21.2,6.4,-17.1,5.73,1.63,-14.1,25.8
2015-04-19 01:03:00,0.0,1.92052,0.00028,404.469,0.040,0.2140,0.0009,140.003,45.000,32402.41636,1.92462,405.515,32.063,45.068,45.000,0.00,0.09,-272.72,-272.77,7,685,-2,21.6,6.3,-17.0,21.2,6.4,-17.1,5.73,1.93,-14.1,25.8
2015-04-19 01:04:00,0.0,1.92040,0.00026,404.471,0.032,0.2147,0.0020,139.998,45.000,32401.20566,1.92446,405.521,32.066,45.068,45.000,0.00,0.09,-272.73,-272.78,5,685,-2,21.6,6.3,-16.9,21.2,6.4,-17.1,5.73,1.75,-14.1,25.8
2015-04-19 01:05:00,0.0,1.92067,0.00026,404.474,0.047,0.2160,0.0015,140.001,45.000,32400.93191,1.92478,405.527,32.063,45.068,45.000,0.00,0.09,-272.72,-272.78,7,685,-2,21.6,6.3,-16.9,21.2,6.4,-17.1,5.73,1.79,-14.0,25.8
2015-04-19 01:06:00,0.0,1.92048,0.00050,404.502,0.034,0.2145,0.0016,140.002,45.000,32400.64753,1.92453,405.551,32.064,45.068,45.000,0.00,0.09,-272.72,-272.77,5,685,-2,21.6,6.3,-16.9,21.2,6.4,-17.1,5.73,1.90,-14.1,25.8
2015-04-19 01:07:00,0.0,1.92081,0.00028,404.490,0.035,0.2144,0.0016,139.998,45.000,32399.24637,1.92492,405.541,32.059,45.068,45.000,0.00,0.09,-272.72,-272.78,7,685,-2,21.6,6.3,-17.0,21.2,6.4,-17.1,5.73,1.67,-14.0,25.8
2015-04-19 01:08:00,0.0,1.92045,0.00047,404.478,0.035,0.2135,0.0016,139.999,45.000,32400.23704,1.92451,405.521,32.035,45.068,45.000,0.00,0.09,-272.73,-272.78,5,685,-2,21.6,6.3,-17.0,21.3,6.4,-17.1,5.73,1.99,-14.1,25.8
2015-04-19 01:09:00,0.0,1.92063,0.00021,404.482,0.026,0.2134,0.0016,139.999,45.000,32397.93858,1.92469,405.526,32.026,45.068,45.000,0.00,0.09,-272.72,-272.77,7,685,-2,21.6,6.3,-17.0,21.3,6.4,-17.0,5.73,1.62,-14.0,25.8
2015-04-19 01:10:00,0.0,1.92078,0.00038,404.482,0.031,0.2139,0.0011,139.996,45.000,32396.42197,1.92482,405.528,32.013,45.068,45.000,0.00,0.09,-272.72,-272.78,5,685,-2,21.7,6.3,-17.0,21.3,6.4,-17.0,5.73,1.97,-14.0,25.8
2015-04-19 01:11:00,0.0,1.92062,0.00041,404.485,0.040,0.2142,0.0026,140.001,45.000,32395.41580,1.92473,405.532,32.038,45.068,45.000,0.00,0.09,-272.73,-272.78,7,685,-2,21.7,6.3,-17.0,21.3,6.4,-17.0,5.73,1.69,-14.0,25.9
2015-04-19 01:12:00,0.0,1.92066,0.00045,404.486,0.029,0.2135,0.0017,140.000,45.000,32396.28808,1.92467,405.531,32.056,45.068,45.000,0.00,0.09,-272.72,-272.78,5,685,-2,21.7,6.2,-17.0,21.3,6.4,-17.0,5.73,1.86,-14.0,25.9
2015-04-19 01:13:00,0.0,1.92059,0.00021,404.460,0.025,0.2135,0.0027,139.999,45.000,32397.65470,1.92464,405.502,32.063,45.068,45.000,0.00,0.09,-272.72,-272.77,6,685,-2,21.7,6.3,-16.9,21.3,6.4,-17.0,5.73,1.83,-14.0,25.9
2015-04-19 01:14:00,0.0,1.92048,0.00034,404.484,0.019,0.2153,0.0017,139.999,45.000,32397.23004,1.92456,405.537,32.063,45.068,45.000,0.00,0.09,-272.72,-272.78,5,685,-2,21.7,6.3,-16.9,21.3,6.4,-17.0,5.73,1.71,-14.0,25.9
2015-04-19 01:15:00,0.0,1.92084,0.00045,404.474,0.033,0.2155,0.0015,140.000,45.000,32395.93184,1.92496,405.527,32.063,45.068,45.000,0.00,0.09,-272.72,-272.78,6,685,-2,21.7,6.3,-16.9,21.3,6.4,-17.0,5.73,1.97,-14.0,25.9
2015-04-19 01:16:00,0.0,1.92051,0.00028,404.465,0.032,0.2151,0.0011,140.001,45.000,32397.36611,1.92459,405.518,32.063,45.068,45.000,0.00,0.09,-272.71,-272.78,5,685,-2,21.7,6.3,-16.9,21.3,6.4,-17.0,5.73,1.63,-14.0,25.9
2015-04-19 01:17:00,0.0,1.92094,0.00038,404.474,0.025,0.2160,0.0019,139.998,45.000,32395.75189,1.92504,405.530,32.064,45.068,45.000,0.00,0.09,-272.73,-272.78,6,685,-2,21.7,6.3,-16.9,21.3,6.4,-17.0,5.73,1.97,-14.0,25.9
2015-04-19 01:18:00,0.0,1.92045,0.00040,404.435,0.031,0.2162,0.0023,140.002,45.000,32396.99228,1.92456,405.491,32.065,45.068,45.000,0.00,0.09,-272.73,-272.78,5,685,-2,21.7,6.3,-16.9,21.3,6.4,-17.0,5.73,1.69,-14.0,25.9
2015-04-19 01:19:00,0.0,1.92048,0.00031,404.464,0.028,0.2175,0.0018,140.002,45.000,32397.98226,1.92465,405.528,32.065,45.068,45.000,0.00,0.09,-272.72,-272.78,6,685,-2,21.7,6.4,-16.8,21.3,6.4,-17.0,5.73,1.85,-14.0,25.9
2015-04-19 01:20:00,0.0,1.92057,0.00034,404.490,0.028,0.2192,0.0015,140.000,45.000,32396.16751,1.92472,405.562,32.060,45.068,45.000,0.00,0.09,-272.72,-272.78,5,685,-2,21.7,6.4,-16.7,21.3,6.4,-17.0,5.73,1.84,-14.0,25.9
2015-04-19 01:21:00,0.0,1.92062,0.00030,404.465,0.030,0.2198,0.0012,140.001,45.000,32395.72265,1.92481,405.541,32.061,45.068,45.000,0.00,0.09,-272.72,-272.79,6,685,-2,21.7,6.4,-16.6,21.3,6.4,-17.0,5.73,1.70,-14.0,25.9
2015-04-19 01:22:00,0.0,1.92055,0.00036,404.471,0.036,0.2194,0.0019,139.999,45.000,32395.99635,1.92470,405.542,32.061,45.068,45.000,0.00,0.09,-272.72,-272.78,5,685,-2,21.7,6.4,-16.7,21.3,6.4,-17.0,5.73,1.97,-14.0,25.8
2015-04-19 01:23:00,0.0,1.92029,0.00038,404.458,0.027,0.2184,0.0016,139.997,45.000,32395.97046,1.92442,405.526,32.019,45.068,45.000,0.00,0.09,-272.72,-272.77,6,685,-2,21.7,6.4,-16.7,21.3,6.4,-17.0,5.73,1.62,-14.0,25.9
2015-04-19 01:24:00,0.0,1.92037,0.00032,404.463,0.023,0.2198,0.0019,140.002,45.000,32398.06517,1.92458,405.539,32.008,45.068,45.000,0.00,0.09,-272.73,-272.78,5,685,-2,21.7,6.4,-16.7,21.4,6.4,-17.0,5.73,2.00,-14.0,25.9
2015-04-19 01:25:00,0.0,1.92057,0.00041,404.464,0.025,0.2182,0.0015,140.001,45.000,32397.92457,1.92472,405.530,31.995,45.068,45.000,0.00,0.09,-272.72,-272.78,6,685,-2,21.7,6.3,-16.8,21.4,6.4,-16.9,5.73,1.61,-13.9,25.8
2015-04-19 01:26:00,0.0,1.92016,0.00033,404.425,0.028,0.2181,0.0013,139.996,45.000,32399.13639,1.92433,405.494,31.943,45.068,45.000,0.00,0.09,-272.72,-272.77,5,686,-2,21.8,6.4,-16.7,21.4,6.4,-16.9,5.73,2.00,-14.0,25.8
2015-04-19 01:27:00,0.0,1.92013,0.00052,404.443,0.021,0.2184,0.0014,140.001,44.999,32399.29174,1.92425,405.510,31.899,45.068,45.000,0.00,0.09,-272.72,-272.78,6,686,-2,21.7,6.4,-16.8,21.4,6.4,-16.9,5.73,1.62,-13.9,25.8
2015-04-19 01:28:00,0.0,1.92039,0.00033,404.471,0.033,0.2153,0.0016,140.000,44.999,32397.51712,1.92446,405.523,31.846,45.068,45.000,0.00,0.09,-272.73,-272.78,5,687,-2,21.8,6.3,-16.9,21.4,6.4,-16.9,5.73,1.94,-13.9,25.8
2015-04-19 01:29:00,0.0,1.92044,0.00038,404.469,0.032,0.2166,0.0016,139.996,45.000,32395.10223,1.92459,405.530,31.771,45.068,45.000,0.00,0.09,-272.72,-272.78,5,687,-2,21.8,6.3,-16.8,21.4,6.4,-16.9,5.73,1.73,-13.9,25.8
2015-04-19 01:30:00,0.0,1.92014,0.00030,404.457,0.040,0.2195,0.0024,140.000,45.000,32396.03894,1.92431,405.530,31.706,45.068,45.000,0.00,0.09,-272.72,-272.77,6,687,-2,21.8,6.4,-16.7,21.4,6.4,-16.9,5.73,1.82,-13.9,25.8
2015-04-19 01:31:00,0.0,1.92002,0.00033,404.435,0.024,0.2212,0.0018,140.000,44.999,32395.19263,1.92423,405.517,31.645,45.068,45.000,0.00,0.09,-272.73,-272.79,5,687,-2,21.7,6.4,-16.6,21.4,6.4,-16.9,5.73,1.87,-13.9,25.8
2015-04-19 01:32:00,0.0,1.91993,0.00026,404.432,0.031,0.2228,0.0009,140.002,44.999,32393.72972,1.92415,405.522,31.595,45.068,45.000,0.00,0.09,-272.72,-272.78,6,687,-2,21.8,6.5,-16.5,21.4,6.4,-16.9,5.73,1.69,-13.9,25.9
2015-04-19 01:33:00,0.0,1.92016,0.00032,404.429,0.038,0.2226,0.0013,139.997,44.999,32388.17299,1.92438,405.517,31.562,45.068,45.000,0.00,0.09,-272.72,-272.78,6,687,-2,21.7,6.5,-16.6,21.4,6.4,-16.9,5.73,1.98,-13.9,25.9
2015-04-19 01:34:00,0.0,1.92029,0.00033,404.422,0.032,0.2219,0.0023,140.005,44.999,32387.49603,1.92448,405.507,31.504,45.068,45.000,0.00,0.09,-272.72,-272.78,5,687,-2,21.7,6.5,-16.6,21.4,6.4,-16.9,5.73,1.61,-13.9,25.9
2015-04-19 01:35:00,0.0,1.92029,0.00042,404.473,0.028,0.2202,0.0016,139.999,44.999,32384.16467,1.92453,405.550,31.499,45.068,45.000,0.00,0.09,-272.73,-272.78,6,687,-2,21.7,6.4,-16.6,21.4,6.4,-16.8,5.73,2.01,-13.9,25.9
2015-04-19 01:36:00,0.0,1.92020,0.00028,404.438,0.032,0.2193,0.0018,139.998,44.999,32382.24716,1.92436,405.512,31.457,45.068,45.000,0.00,0.09,-272.72,-272.78,5,687,-2,21.7,6.4,-16.7,21.4,6.4,-16.8,5.73,1.62,-13.9,26.0
2015-04-19 01:37:00,0.0,1.91991,0.00040,404.433,0.036,0.2190,0.0020,139.998,44.999,32381.83033,1.92405,405.503,31.435,45.068,45.000,0.00,0.09,-272.73,-272.77,6,687,-2,21.7,6.4,-16.7,21.4,6.4,-16.9,5.73,1.96,-13.9,25.9
2015-04-19 01:38:00,0.0,1.91999,0.00035,404.413,0.028,0.2184,0.0012,140.003,44.999,32381.64749,1.92417,405.482,31.436,45.068,45.000,0.00,0.09,-272.72,-272.78,6,687,-2,21.7,6.3,-16.8,21.4,6.4,-16.9,5.73,1.70,-13.9,25.9
2015-04-19 01:39:00,0.0,1.91978,0.00023,404.415,0.030,0.2169,0.0014,139.997,45.000,32382.47214,1.92389,405.474,31.426,45.068,45.000,0.00,0.09,-272.72,-272.78,5,687,-2,21.7,6.3,-16.8,21.4,6.5,-16.8,5.73,1.87,-13.9,26.0
2015-04-19 01:40:00,0.0,1.91991,0.00035,404.454,0.029,0.2183,0.0012,140.002,44.999,32382.51241,1.92408,405.522,31.398,45.068,45.000,0.00,0.09,-272.72,-272.78,6,687,-2,21.7,6.3,-16.8,21.4,6.5,-16.8,5.73,1.80,-13.9,26.0
2015-04-19 01:41:00,0.0,1.92026,0.00047,404.443,0.024,0.2185,0.0011,140.002,44.999,32378.07114,1.92436,405.512,31.427,45.068,45.000,0.00,0.09,-272.73,-272.78,5,686,-2,21.7,6.4,-16.7,21.4,6.5,-16.8,5.73,1.79,-13.9,26.0
2015-04-19 01:42:00,0.0,1.92008,0.00039,404.431,0.033,0.2210,0.0020,140.002,45.000,32375.53566,1.92431,405.510,31.450,45.068,44.999,0.00,0.09,-272.72,-272.78,6,686,-2,21.7,6.5,-16.5,21.4,6.5,-16.8,5.73,1.82,-13.9,25.8
2015-04-19 01:43:00,0.0,1.91963,0.00023,404.427,0.034,0.2223,0.0019,139.999,45.000,32373.88360,1.92389,405.515,31.505,45.068,45.000,0.00,0.09,-272.72,-272.77,5,686,-2,21.7,6.5,-16.6,21.3,6.5,-16.9,5.73,1.85,-13.9,25.9
2015-04-19 01:44:00,0.0,1.91957,0.00051,404.401,0.031,0.2206,0.0012,139.999,45.000,32377.58444,1.92375,405.479,31.577,45.068,45.000,0.00,0.09,-272.72,-272.78,6,686,-2,21.7,6.4,-16.7,21.3,6.5,-16.8,5.73,1.71,-13.9,25.9
2015-04-19 01:45:00,0.0,1.91954,0.00029,404.422,0.021,0.2194,0.0013,139.998,45.001,32378.23218,1.92369,405.496,31.653,45.068,45.000,0.00,0.09,-272.73,-272.78,5,685,-2,21.7,6.4,-16.7,21.3,6.5,-16.8,5.73,1.97,-13.9,25.8
2015-04-19 01:46:00,0.0,1.91943,0.00038,404.395,0.036,0.2204,0.0016,139.998,45.001,32380.07837,1.92363,405.472,31.721,45.068,45.000,0.00,0.09,-272.72,-272.78,6,685,-2,21.7,6.4,-16.7,21.3,6.5,-16.8,5.73,1.63,-13.9,25.8